Weather History for Orange, TX

Change the Weather History Date:

Wednesday, January 2, 2013

  Actual Average Record
Temperature  
Mean Temperature 44 °F -  
Max Temperature 46 °F 57 °F 78 °F (2006)
Min Temperature 41 °F 39 °F 18 °F (1979)
Degree Days  
Heating Degree Days 22    
Moisture  
Dew Point 43 °F    
Average Humidity 100    
Maximum Humidity 100    
Minimum Humidity 100    
Precipitation  
Precipitation 0.13 in - - ()
Sea Level Pressure  
Sea Level Pressure 30.24 in    
Wind  
Wind Speed 8 mph (NNW)    
Max Wind Speed 12 mph    
Max Gust Speed 20 mph    
Visibility 9 miles    
Events Rain    
Averages and records for this station are not official NWS values.
T = Trace of Precipitation, MM = Missing Value Source: NWS Daily Summary

Daily Weather History Graph

Daily Weather History Graph

Search for Another Location

Airport:

Trip Planner

Search our weather history database for the weather conditions in past years. The results will help you decide how hot, cold, wet, or windy it might be!

Date:

Astronomy

Jan. 02, 2013 Rise Set
Actual Time 7:11 AM CST 5:27 PM CST
Civil Twilight 6:45 AM CST 5:53 PM CST
Nautical Twilight 6:15 AM CST 6:23 PM CST
Astronomical Twilight 5:46 AM CST 6:52 PM CST
Moon 10:34 PM CST (1/2) 10:16 AM CST (1/2)
Length of Visible Light 11h 08m
Length of Day
10h 15m
Waning Gibbous, 75% of the Moon is Illuminated
Jan 2
Waning Gibbous
Jan 4
Last Quarter
Jan 11
New
Jan 18
First Quarter
Jan 26
Full

Hourly Weather History & Observations

Time (CST) Temp. Windchill Dew Point Humidity Pressure Visibility Wind Dir Wind Speed Gust Speed Precip Events Conditions
12:15 AM 46.4 °F 41.9 °F 46.4 °F 100% 30.18 in 10.0 mi North 9.2 mph - 0.01 in   Overcast
12:35 AM 46.4 °F 41.9 °F 46.4 °F 100% 30.17 in 10.0 mi North 9.2 mph - 0.01 in   Overcast
12:55 AM 46.4 °F 42.4 °F 46.4 °F 100% 30.18 in 10.0 mi NNW 8.1 mph 16.1 mph 0.01 in   Overcast
1:15 AM 46.4 °F 41.5 °F 46.4 °F 100% 30.17 in 10.0 mi North 10.4 mph 16.1 mph N/A   Overcast
1:35 AM 46.4 °F 42.4 °F 46.4 °F 100% 30.17 in 10.0 mi NNW 8.1 mph - 0.01 in   Overcast
1:55 AM 46.4 °F 41.5 °F 46.4 °F 100% 30.16 in 10.0 mi North 10.4 mph 19.6 mph 0.01 in   Overcast
2:15 AM 46.4 °F 42.9 °F 46.4 °F 100% 30.18 in 10.0 mi North 6.9 mph - N/A   Overcast
2:35 AM 46.4 °F 42.4 °F 46.4 °F 100% 30.18 in 10.0 mi NNW 8.1 mph - 0.01 in   Overcast
3:35 AM 44.6 °F 40.2 °F 44.6 °F 100% 30.18 in 10.0 mi North 8.1 mph - N/A   Overcast
3:55 AM 44.6 °F 39.2 °F 44.6 °F 100% 30.19 in 10.0 mi NNW 10.4 mph 17.3 mph 0.01 in   Overcast
4:15 AM 44.6 °F 39.2 °F 44.6 °F 100% 30.18 in 10.0 mi North 10.4 mph - N/A   Overcast
4:35 AM 44.6 °F 39.7 °F 44.6 °F 100% 30.19 in 10.0 mi NNW 9.2 mph - N/A   Overcast
4:55 AM 44.6 °F 38.8 °F 44.6 °F 100% 30.18 in 10.0 mi NNW 11.5 mph - N/A   Overcast
5:15 AM 44.6 °F 40.2 °F 44.6 °F 100% 30.19 in 10.0 mi NNW 8.1 mph 16.1 mph 0.01 in   Overcast
5:35 AM 44.6 °F 39.7 °F 44.6 °F 100% 30.20 in 10.0 mi NNW 9.2 mph - 0.01 in   Overcast
5:55 AM 44.6 °F 40.2 °F 44.6 °F 100% 30.20 in 10.0 mi NNW 8.1 mph - 0.01 in   Overcast
6:15 AM 44.6 °F 40.2 °F 44.6 °F 100% 30.22 in 10.0 mi NNW 8.1 mph - 0.01 in   Overcast
6:35 AM 44.6 °F 41.4 °F 44.6 °F 100% 30.22 in 10.0 mi North 5.8 mph - 0.01 in   Overcast
6:55 AM 44.6 °F 39.7 °F 44.6 °F 100% 30.23 in 10.0 mi North 9.2 mph - 0.01 in   Overcast
7:15 AM 44.6 °F 40.2 °F 44.6 °F 100% 30.24 in 10.0 mi NNW 8.1 mph - N/A   Overcast
7:35 AM 44.6 °F 41.4 °F 44.6 °F 100% 30.23 in 10.0 mi North 5.8 mph - N/A   Overcast
7:55 AM 42.8 °F 38.6 °F 42.8 °F 100% 30.24 in 10.0 mi North 6.9 mph - 0.01 in   Overcast
8:15 AM 44.6 °F 42.2 °F 44.6 °F 100% 30.25 in 10.0 mi North 4.6 mph - N/A Rain Light Rain
8:35 AM 44.6 °F 41.4 °F 44.6 °F 100% 30.26 in 10.0 mi North 5.8 mph - N/A   Overcast
9:15 AM 42.8 °F 40.1 °F 42.8 °F 100% 30.28 in 10.0 mi NW 4.6 mph - N/A   Overcast
9:35 AM 42.8 °F 39.3 °F 42.8 °F 100% 30.29 in 10.0 mi NW 5.8 mph - 0.01 in   Light Drizzle
9:55 AM 42.8 °F 39.3 °F 42.8 °F 100% 30.29 in 10.0 mi NNW 5.8 mph - 0.01 in   Light Drizzle
10:15 AM 42.8 °F 39.3 °F 42.8 °F 100% 30.28 in 10.0 mi NNW 5.8 mph - N/A   Overcast
10:35 AM 42.8 °F 38.6 °F 42.8 °F 100% 30.28 in 10.0 mi NNW 6.9 mph - N/A Rain Light Rain
10:55 AM 42.8 °F 39.3 °F 42.8 °F 100% 30.27 in 10.0 mi NNW 5.8 mph - 0.01 in   Light Drizzle
11:15 AM 42.8 °F 38.6 °F 42.8 °F 100% 30.27 in 10.0 mi NNW 6.9 mph - N/A   Overcast
11:35 AM 42.8 °F 39.3 °F 42.8 °F 100% 30.26 in 10.0 mi North 5.8 mph - N/A Rain Light Rain
11:55 AM 42.8 °F 41.1 °F 42.8 °F 100% 30.26 in 10.0 mi NW 3.5 mph - N/A Rain Light Rain
12:15 PM 42.8 °F 41.1 °F 42.8 °F 100% 30.24 in 10.0 mi NNW 3.5 mph - N/A   Light Drizzle
12:35 PM 42.8 °F 38.6 °F 42.8 °F 100% 30.24 in 10.0 mi NW 6.9 mph - N/A   Overcast
12:55 PM 42.8 °F 40.1 °F 42.8 °F 100% 30.23 in 10.0 mi NW 4.6 mph - N/A   Overcast
1:15 PM 42.8 °F 38.6 °F 42.8 °F 100% 30.23 in 7.0 mi NW 6.9 mph - N/A   Light Drizzle
1:35 PM 42.8 °F 38.0 °F 42.8 °F 100% 30.23 in 10.0 mi NW 8.1 mph - N/A   Light Drizzle
1:55 PM 42.8 °F 38.6 °F 42.8 °F 100% 30.22 in 7.0 mi NW 6.9 mph - 0.01 in   Drizzle
2:15 PM 42.8 °F 38.6 °F 42.8 °F 100% 30.22 in 7.0 mi NNW 6.9 mph - N/A   Light Drizzle
2:35 PM 42.8 °F 38.0 °F 42.8 °F 100% 30.23 in 7.0 mi NW 8.1 mph - N/A   Drizzle
2:55 PM 41.0 °F 35.8 °F 41.0 °F 100% 30.24 in 7.0 mi NW 8.1 mph - N/A   Drizzle
3:15 PM 41.0 °F 36.4 °F 41.0 °F 100% 30.24 in 7.0 mi NNW 6.9 mph - N/A Rain Light Rain
3:35 PM 41.0 °F 36.4 °F 41.0 °F 100% 30.25 in 5.0 mi NNW 6.9 mph - N/A Rain Rain
3:55 PM 41.0 °F 36.4 °F 41.0 °F 100% 30.24 in 7.0 mi NNW 6.9 mph - N/A Rain Rain
4:15 PM 41.0 °F 37.1 °F 41.0 °F 100% 30.24 in 7.0 mi NNW 5.8 mph - 0.01 in Rain Light Rain
4:35 PM 41.0 °F 37.1 °F 41.0 °F 100% 30.23 in 5.0 mi North 5.8 mph - 0.01 in Rain Rain
4:55 PM 41.0 °F 36.4 °F 41.0 °F 100% 30.23 in 7.0 mi North 6.9 mph - 0.01 in Rain Light Rain
5:15 PM 41.0 °F 36.4 °F 41.0 °F 100% 30.24 in 7.0 mi NNW 6.9 mph - N/A Rain Light Rain
5:35 PM 41.0 °F 38.0 °F 41.0 °F 100% 30.25 in 7.0 mi NNW 4.6 mph - 0.01 in   Overcast
5:55 PM 41.0 °F 37.1 °F 41.0 °F 100% 30.25 in 7.0 mi NNW 5.8 mph - 0.01 in   Overcast
6:15 PM 41.0 °F 35.8 °F 41.0 °F 100% 30.24 in 10.0 mi NNW 8.1 mph - N/A   Overcast
6:35 PM 41.0 °F 35.8 °F 41.0 °F 100% 30.26 in 10.0 mi NNW 8.1 mph - N/A   Overcast
6:55 PM 41.0 °F 36.4 °F 41.0 °F 100% 30.25 in 7.0 mi North 6.9 mph - N/A   Overcast
7:15 PM 41.0 °F 37.1 °F 41.0 °F 100% 30.27 in 10.0 mi NNW 5.8 mph - N/A   Overcast
7:35 PM 41.0 °F 36.4 °F 41.0 °F 100% 30.28 in 10.0 mi NNW 6.9 mph - N/A   Overcast
7:55 PM 41.0 °F 35.2 °F 41.0 °F 100% 30.29 in 10.0 mi NNW 9.2 mph - N/A   Overcast
8:15 PM 41.0 °F 37.1 °F 41.0 °F 100% 30.28 in 10.0 mi North 5.8 mph - N/A   Overcast
8:35 PM 41.0 °F 36.4 °F 41.0 °F 100% 30.29 in 10.0 mi NNW 6.9 mph - 0.01 in   Overcast
8:55 PM 41.0 °F 37.1 °F 41.0 °F 100% 30.29 in 10.0 mi NNW 5.8 mph - 0.01 in   Overcast
9:15 PM 41.0 °F 38.0 °F 41.0 °F 100% 30.29 in 7.0 mi NNW 4.6 mph - N/A   Overcast
9:35 PM 41.0 °F 36.4 °F 41.0 °F 100% 30.28 in 7.0 mi NNW 6.9 mph - N/A   Overcast
9:55 PM 41.0 °F 38.0 °F 41.0 °F 100% 30.29 in 7.0 mi NNW 4.6 mph - N/A   Overcast
10:15 PM 41.0 °F 37.1 °F 41.0 °F 100% 30.29 in 7.0 mi NNW 5.8 mph - N/A   Overcast
10:35 PM 41.0 °F 36.4 °F 41.0 °F 100% 30.29 in 7.0 mi NNW 6.9 mph - N/A   Overcast
10:55 PM 41.0 °F 36.4 °F 41.0 °F 100% 30.29 in 7.0 mi North 6.9 mph - N/A   Overcast
11:15 PM 41.0 °F 36.4 °F 41.0 °F 100% 30.31 in 7.0 mi NNW 6.9 mph - N/A   Overcast
11:35 PM 41.0 °F 38.0 °F 41.0 °F 100% 30.30 in 7.0 mi North 4.6 mph - N/A   Overcast
11:55 PM 41.0 °F 36.4 °F 41.0 °F 100% 30.29 in 7.0 mi North 6.9 mph - N/A   Overcast